Flag for USA

Past Weather in Clearwater, Florida, USA — Yesterday and Last 2 Weeks

Now
78 °F

Passing clouds.


Feels Like: 81 °F
Forecast: 87 / 75 °F
Wind: No wind

Location: St. Petersburg / Clearwater International Airport
Current Time: Sep 19, 2020 at 3:09:09 am
Latest Report: Sep 19, 2020 at 1:53 am
Visibility: 10 mi
Pressure29.91 "Hg
Humidity: 93%
Dew Point: 76 °F
Location of ClearwaterLocation

Past Weather in Clearwater — Graph

°F

Clearwater Temperature Yesterday

Maximum temperature yesterday: 88 °F (at 12:53 pm)
Minimum temperature yesterday: 79 °F (at 4:53 am)
Average temperature yesterday: 83 °F

High & Low Weather Summary for the Past Weeks

 TemperatureHumidityPressure
High97 °F (Sep 4, 3:53 pm)100% (Sep 8, 8:53 pm)30.12 "Hg (Sep 8, 8:53 pm)
Low74 °F (Sep 6, 7:03 pm)47% (Sep 6, 4:53 pm)29.77 "Hg (Sep 13, 4:53 am)
Average82 °F86%29.93 "Hg
* Reported Sep 4 1:53 am — Sep 19 1:53 am, Clearwater. Weather by CustomWeather, © 2020

Note: Actual official high and low records may vary slightly from our data, if they occured in-between our weather recording intervals... More about our weather records

Clearwater Weather History for the Previous 24 Hours

Scroll right to see more
 ConditionsComfort  
Time TempWeatherWind HumidityBarometerVisibility
1:53 am
Sat, Sep 19
78 °FPassing clouds.No wind93%29.91 "Hg10 mi
12:53 am80 °FClear.No wind87%29.91 "Hg10 mi
11:53 pm
Fri, Sep 18
80 °FClear.5 mph87%29.92 "Hg10 mi
10:53 pm80 °FClear.3 mph87%29.93 "Hg10 mi
9:53 pm81 °FClear.5 mph82%29.92 "Hg10 mi
8:53 pm81 °FClear.5 mph82%29.91 "Hg10 mi
7:53 pm82 °FClear.7 mph79%29.89 "Hg10 mi
6:53 pm84 °FSunny.10 mph77%29.88 "Hg10 mi
5:53 pm86 °FSunny.9 mph67%29.87 "Hg10 mi
4:53 pm86 °FSunny.12 mph67%29.87 "Hg10 mi
3:53 pm87 °FScattered clouds.12 mph69%29.86 "Hg10 mi
2:53 pm88 °FScattered clouds.14 mph67%29.87 "Hg10 mi
1:53 pm88 °FPartly sunny.12 mph67%29.89 "Hg10 mi
12:53 pm88 °FPassing clouds.9 mph70%29.90 "Hg10 mi
11:53 am87 °FScattered clouds.8 mph72%29.91 "Hg10 mi
10:53 am86 °FBroken clouds.10 mph75%29.91 "Hg10 mi
10:14 am84 °FPartly sunny.8 mph80%29.90 "Hg10 mi
10:01 am84 °FScattered clouds.7 mph80%29.90 "Hg10 mi
9:39 am84 °FBroken clouds.9 mph80%29.89 "Hg10 mi
7:53 am79 °FSunny.3 mph97%29.87 "Hg10 mi
6:53 am79 °FPassing clouds.3 mph94%29.86 "Hg10 mi
5:53 am79 °FPassing clouds.5 mph97%29.84 "Hg10 mi
4:53 am79 °FPassing clouds.No wind97%29.84 "Hg10 mi
3:53 am80 °FPartly cloudy.No wind96%29.84 "Hg10 mi
3:27 am80 °FPassing clouds.3 mph96%29.85 "Hg10 mi
Weather by CustomWeather, © 2020

See weather overview